Tracking 35275 objects as of 9-Sep-2026
HD Live streaming from Space Station
objects crossing your sky now

FSW-2 3


FSW-2 3 is no longer on orbit


NORAD ID: 24634
Int'l Code: 1996-059A
Launch date: October 20, 1996
Source: People's Republic of China (PRC)
Launch site: Jiuquan Satellite Launch Center, China (JSC)
Decay date: 1996-12-03
Your satellite tracking list
Your tracking list is empty




NASA's NSSDC Master Catalog

Two Line Element Set (TLE):
1 24634U 96059A   96338.21358451  .10976792  90154-5  59975-4 0  9990
2 24634 063.0183 271.8643 0009298 112.7233 247.6690 16.54634359  7096
Source of the keplerian elements: AFSPC